sat.trackr.live / text

‹ back to catalog

UNISAT-6

NORAD 40012 · 2014-033C

PAYLOAD ACTIVE UNKNOWN

§ Identity

Operator
Country
IT
Launch date
2014-06-19
Launch site
DLS
Launch vehicle
Mass (kg)
RCS (m²)
0.26

Purposes: comms

External: N2YO · Heavens-Above · Gunter

§ Orbital elements

Epoch: 2026-05-25T01:41:49.401024Z

Period
96.77 min
Inclination
97.7853°
Eccentricity
0.0046104
Mean motion
14.88088147 rev/d
Perigee alt
571.7 km
Apogee alt
636.1 km
Semi-major
6,982.0 km
B*
2.7645e-4
RAAN
298.1962°
Arg perigee
143.4268°
Mean anomaly
217.0111°
Rev number
64,272

§ Raw data

UNISAT-61 40012U 14033C   26145.07071066  .00002536  00000+0  27645-3 0  99952 40012  97.7853 298.1962 0046104 143.4268 217.0111 14.88088147642721

JSON: /api/v1/satellites/40012 · /tle

For live sub-satellite position, see the globe view (requires WebGL).

§ Visibility from observer

Set your observer location to see the next 7 days of passes ≥ 10°. The values pass through the URL so the page stays shareable.

No JS? Fill the form by hand. The geolocation button needs JavaScript.

§ Radio — SatNOGS DB

ModeDescriptionDownlinkUplink
FSK 9k6 FSK TLM 437.422 MHz

1 transmitter · refreshed weekly from db.satnogs.org